Volver al catálogo

STARLINK-34003

ActivoComunicacionesVLEO
NORAD 63882·PAYLOAD·🇺🇸 United States

Lanzado May 10, 2025 desde Vandenberg Space Force Base

Loading…

Próximos Pases (próximas 24 horas)

TLE

ActualizadoSource: CelesTrak SupGP

Época: Sep 15, 2026, 02:21 UTC

1 63882C 25094U   26258.09840278 -.00059973  00000+0 -12782-2 0  2582
2 63882  70.0005  53.2755 0003425 272.2573 359.4991 15.44786640    16

Sigue STARLINK-34003 en tiempo real con AllMySat

Download on the App Store